Location: Newark
(23.7500°N, 102.4000°W)
Time: 23:00:15
(UTC+00:00)

Hubble Space Telescope - Visible Passes

Search period start: 25 September 2020 00:00
Search period end: 05 October 2020 00:00
Orbit: 536 x 540 km, 28.5° (Epoch: 25 September)

Date Brightness Start Highest point End Pass type
(mag) Time Alt. Az. Time Alt. Az. Time Alt. Az.
25 Sep 0.8 11:01:06 74° SE 11:01:06 74° SE 11:05:05 10° ENE visible
26 Sep 1.3 10:51:07 55° ENE 10:51:07 55° ENE 10:54:24 10° ENE visible
27 Sep 2.1 10:41:05 37° ENE 10:41:05 37° ENE 10:43:41 10° ENE visible
27 Sep 1.6 12:17:03 10° WNW 12:20:59 42° N 12:24:54 10° ENE visible
28 Sep 2.8 10:31:03 26° ENE 10:31:03 26° ENE 10:32:58 10° ENE visible
28 Sep 1.6 12:06:24 10° WNW 12:10:20 41° N 12:14:15 10° ENE visible
29 Sep 3.4 10:20:59 19° ENE 10:20:59 19° ENE 10:22:15 10° ENE visible
29 Sep 1.6 11:56:19 13° WNW 11:59:41 42° N 12:03:36 10° ENE visible
30 Sep 3.8 10:10:55 14° ENE 10:10:55 14° ENE 10:11:32 10° ENE visible
30 Sep 1.5 11:46:15 18° WNW 11:49:02 44° N 11:52:58 10° ENE visible
01 Oct 1.4 11:36:12 24° NW 11:38:23 47° N 11:42:21 10° E visible
02 Oct 1.2 11:26:11 33° NW 11:27:43 52° N 11:31:44 10° E visible
03 Oct 1.0 11:16:12 47° NW 11:17:03 59° NNE 11:21:07 10° E visible
04 Oct 0.8 11:06:16 69° N 11:06:21 69° NNE 11:10:27 10° E visible
